Location: Sluknov
(51.0170°N, 14.4670°E)
Time: 10:40:50
(UTC+01:00)

ISS - Pass Details

Date: 18 February 2026
Orbit: 416 x 426 km, 51.6° (Epoch: 9 March)

Event Time Altitude Azimuth Distance (km) Brightness Sun altitude
Exits shadow 04:54:48 33° 152° (SSE) 724 -2.5 -21.8°
Maximum altitude 04:54:51 33° 150° (SSE) 723 -2.4 -21.8°
Drops below altitude 10° 04:57:54 10° 85° (E) 1,494 0.2 -21.3°
Sets 05:00:07 0° 75° (ENE) 2,359 1.6 -20.9°
